Location: Elizabeth Ann Machol Dragonfly Observatory
(32.8132°N, 108.2740°W)
Time: 04:28:42
(UTC-06:00)

N. Korean satellite - Visible Passes

Search period start: 21 March 2019 00:00
Search period end: 31 March 2019 00:00
Orbit: 456 x 510 km, 97.2° (Epoch: 20 March)

Date Brightness Start Highest point End Pass type
(mag) Time Alt. Az. Time Alt. Az. Time Alt. Az.
22 Mar 9.7 06:36:01 10° NE 06:38:41 20° E 06:41:21 10° SE visible
26 Mar 9.8 06:30:23 10° NE 06:32:47 17° E 06:35:12 10° SE visible
30 Mar 9.9 06:24:48 10° ENE 06:26:51 14° E 06:28:55 10° SE visible
